Location: ???????
(54.6339°N, 39.4245°E)
Time: 06:55:17
(UTC+00:00)

Cosmos 2333 Rocket - Pass Details

Date: 19 May 2025
Orbit: 840 x 862 km, 70.8° (Epoch: 23 June)

Event Time Altitude Azimuth Distance (km) Brightness Sun altitude
Rises 18:36:38 0° 322° (NW) 3,447 8.0 -7.8°
Reaches altitude 10° 18:39:32 10° 335° (NNW) 2,505 6.2 -8.0°
Maximum altitude 18:44:19 26° 31° (NNE) 1,627 4.0 -8.4°
Drops below altitude 10° 18:49:04 10° 87° (E) 2,485 4.3 -8.8°
Enters shadow 18:51:55 - 100° (E) 3,412 4.9 -9.1°
